Flag for Kazakhstan Weather past 2 weeks in Almaty, Kazakhstan

Now
21 °F

Ice fog.


Feels Like: 16 °F
Forecast: 24 / 47 °F
Wind: 3 mph from Southwest

Location: Almaty Airport

Current Time: Dec 29, 2014 at 6:28:42 PM

Latest Report: Dec 29, 2014 at 5:30 PM


Visibility: 0 mi

Pressure: 30.12 "Hg

Humidity: 86%

Dew point: 18 °F

Location of AlmatyLocation

Historic Weather in Almaty — Graph

°F

Almaty temperature yesterday

Maximum temperature yesterday: 34 °F (at 1:30 PM)
Minimum temperature yesterday: 14 °F (at 7:00 AM)
Average temperature yesterday: 22 °F

Past Weeks' High & Low Weather Summary

 TemperatureHumidityPressure
High43 °F (Dec 25, 3:30 PM)93% (Dec 21, 8:30 AM)30.57 "Hg (Dec 21, 8:30 AM)
Low0 °F (Dec 16, 5:30 AM)48% (Dec 25, 4:30 AM)29.92 "Hg (Dec 24, 1:30 PM)
Average22 °F78%30.25 "Hg
* Reported Dec 14 5:00 PM — Dec 29 5:30 PM, Almaty, Weather by CustomWeather, © 2014

Note: Actual official high and low records may vary slightly from our data, if they occured in-between our weather recording intervals... More about our weather records

Advertising

Almaty weather history for previous 24 hours

 ConditionsComfort  
Time TempWeatherWind HumidityBarometerVisibility
5:30 PM
Dec 29
21 °FIce fog.3 mph86%30.12 "Hg0 mi
5:00 PM21 °FIce fog.1 mph86%30.12 "Hg0 mi
4:30 PM21 °FIce fog.3 mph86%30.12 "Hg0 mi
4:00 PM21 °FIce fog.1 mph86%30.12 "Hg0 mi
3:30 PM21 °FIce fog.1 mph86%30.12 "Hg0 mi
3:00 PM21 °FIce fog.1 mph86%30.12 "Hg0 mi
2:30 PM21 °FIce fog.1 mph86%30.12 "Hg0 mi
2:00 PM21 °FIce fog.1 mph86%30.12 "Hg0 mi
1:30 PM21 °FIce fog.1 mph86%30.15 "Hg0 mi
1:00 PM19 °FIce fog.1 mph93%30.15 "Hg0 mi
12:30 PM19 °FIce fog.1 mph86%30.15 "Hg0 mi
12:00 PM19 °FIce fog.1 mph86%30.18 "Hg0 mi
11:30 AM18 °FIce fog.1 mph86%30.18 "Hg0 mi
11:00 AM19 °FIce fog.1 mph86%30.18 "Hg0 mi
10:30 AM18 °FIce fog.No wind86%30.18 "Hg0 mi
10:00 AM18 °FIce fog.No wind86%30.18 "Hg0 mi
9:30 AM16 °FIce fog.1 mph93%30.18 "Hg0 mi
9:00 AM16 °FIce fog.3 mph93%30.21 "Hg0 mi
8:30 AM16 °FIce fog.1 mph86%30.21 "Hg0 mi
8:00 AM16 °FCold.1 mph86%30.21 "HgN/A
7:30 AM14 °FIce fog.1 mph92%30.21 "Hg0 mi
7:00 AM14 °FIce fog.1 mph85%30.21 "Hg0 mi
6:30 AM14 °FCold.No wind85%30.18 "HgN/A
6:00 AM12 °FCold.1 mph92%30.18 "HgN/A
5:30 AM12 °FCold.No wind85%30.18 "HgN/A
5:00 AM12 °FIce fog.3 mph85%30.18 "Hg0 mi
4:30 AM14 °FIce fog.1 mph85%30.21 "Hg1 mi
4:00 AM14 °FIce fog.1 mph85%30.21 "Hg1 mi
3:30 AM14 °FIce fog.No wind85%30.21 "Hg1 mi
3:00 AM16 °FIce fog.1 mph79%30.21 "Hg1 mi
2:30 AM16 °FIce fog.1 mph79%30.21 "Hg1 mi
2:00 AM16 °FIce fog.3 mph79%30.24 "Hg1 mi
1:30 AM16 °FIce fog.3 mph79%30.24 "Hg1 mi
1:00 AM16 °FIce fog.1 mph86%30.24 "Hg1 mi
12:30 AM18 °FIce fog.1 mph79%30.24 "Hg1 mi
12:00 AM18 °FIce fog.1 mph79%30.24 "Hg1 mi
11:30 PM
Dec 28
18 °FIce fog.3 mph79%30.24 "Hg1 mi
11:00 PM18 °FIce fog.3 mph79%30.24 "Hg0 mi
10:30 PM18 °FIce fog.3 mph86%30.24 "Hg0 mi
10:00 PM18 °FIce fog.3 mph86%30.24 "Hg0 mi
9:30 PM19 °FIce fog.1 mph79%30.24 "Hg0 mi
9:00 PM19 °FIce fog.1 mph86%30.24 "Hg0 mi
8:30 PM19 °FIce fog.3 mph86%30.24 "Hg0 mi
8:00 PM21 °FIce fog.3 mph80%30.24 "Hg0 mi
7:30 PM21 °FIce fog.3 mph80%30.24 "Hg0 mi
7:00 PM23 °FIce fog.1 mph80%30.27 "Hg0 mi
6:30 PM23 °FIce fog.3 mph80%30.27 "Hg0 mi
6:00 PM25 °FIce fog.1 mph80%30.27 "Hg1 mi
Weather by CustomWeather, © 2014

See weather overviewHow to use our weather pages